When you browse on this site, cookies collect data to enhance your experience and personalize the content and advertising you see.
Visit our Privacy Policy to learn more. By continuing to use the site, you agree to this use of cookies and data.
  • In Romania
  • List of Countries
  • For 7 days
  • Water Temperature
  • Satellite Maps
  • Weather Map
  • Weather Widgets
  • user-avatar
    Login

    Hourly Weather Arpajon-sur-Cere

    Today, 25 April, Thursday

    Time Temperature Precipitation Wind Pressure Humidity
    00:00 +6°C° 0.4 mm 7 mps 691 mmHg 81%
    01:00 +7°C° 0.9 mm 5 mps 691 mmHg 85%
    02:00 +7°C° 0.9 mm 4 mps 691 mmHg 89%
    03:00 +7°C° 0.9 mm 3 mps 691 mmHg 94%
    04:00 +7°C° 2.5 mm 3 mps 692 mmHg 95%
    05:00 +7°C° 2.5 mm 2 mps 692 mmHg 97%
    06:00 +7°C° 2.5 mm 2 mps 692 mmHg 98%
    07:00 +7°C° 5.1 mm 2 mps 692 mmHg 98%
    08:00 +6°C° 5.1 mm 2 mps 693 mmHg 98%
    09:00 +7°C° 5.1 mm 1 mps 693 mmHg 98%
    10:00 +7°C° 1.2 mm 1 mps 693 mmHg 97%
    11:00 +7°C° 1.2 mm 1 mps 693 mmHg 96%
    12:00 +7°C° 1.2 mm 1 mps 694 mmHg 95%
    13:00 +7°C° 0.7 mm 1 mps 694 mmHg 95%
    14:00 +7°C° 0.7 mm 1 mps 694 mmHg 96%
    15:00 +7°C° 0.7 mm 1 mps 694 mmHg 96%
    16:00 +7°C° 0.9 mm 1 mps 694 mmHg 97%
    17:00 +6°C° 0.9 mm 1 mps 694 mmHg 97%
    18:00 +6°C° 0.9 mm 1 mps 694 mmHg 97%
    19:00 +6°C° 0.6 mm 1 mps 695 mmHg 97%
    20:00 +6°C° 0.6 mm 1 mps 696 mmHg 97%
    21:00 +5°C° 0.6 mm 1 mps 696 mmHg 97%
    22:00 +5°C° 0.2 mm 1 mps 696 mmHg 97%
    23:00 +5°C° 0.2 mm 1 mps 697 mmHg 97%

    Tomorrow, 26 April, Friday

    Time Temperature Precipitation Wind Pressure Humidity
    00:00 +5°C° 0.2 mm 1 mps 697 mmHg 98%
    01:00 +5°C° 0.1 mm 1 mps 697 mmHg 98%
    02:00 +5°C° 0.1 mm 1 mps 698 mmHg 98%
    03:00 +5°C° 0.1 mm 1 mps 698 mmHg 98%
    04:00 +5°C° 0.4 mm 1 mps 699 mmHg 98%
    05:00 +5°C° 0.4 mm 1 mps 699 mmHg 99%
    06:00 +5°C° 0.4 mm 1 mps 700 mmHg 99%
    07:00 +5°C° 0.3 mm 2 mps 700 mmHg 98%
    08:00 +5°C° 0.3 mm 2 mps 701 mmHg 98%
    09:00 +6°C° 0.3 mm 2 mps 701 mmHg 98%
    10:00 +7°C° 0.2 mm 2 mps 702 mmHg 92%
    11:00 +8°C° 0.2 mm 3 mps 702 mmHg 87%
    12:00 +9°C° 0.2 mm 3 mps 702 mmHg 81%
    13:00 +8°C° 0.9 mm 3 mps 702 mmHg 87%
    14:00 +8°C° 0.9 mm 3 mps 702 mmHg 92%
    15:00 +7°C° 0.9 mm 3 mps 702 mmHg 98%
    16:00 +7°C° 0.5 mm 3 mps 703 mmHg 98%
    17:00 +7°C° 0.5 mm 3 mps 703 mmHg 97%
    18:00 +7°C° 0.5 mm 2 mps 704 mmHg 97%
    19:00 +6°C° 0.1 mm 2 mps 705 mmHg 97%
    20:00 +5°C° 0.1 mm 2 mps 705 mmHg 98%
    21:00 +4°C° 0.1 mm 2 mps 706 mmHg 98%
    22:00 +4°C° 0.1 mm 2 mps 706 mmHg 98%
    23:00 +4°C° 0.1 mm 2 mps 706 mmHg 99%

    Day after tomorrow, 27 April, Saturday

    Time Temperature Precipitation Wind Pressure Humidity
    00:00 +4°C° 0.1 mm 1 mps 706 mmHg 99%
    01:00 +4°C° 0.1 mm 1 mps 706 mmHg 99%
    02:00 +4°C° 0.1 mm 1 mps 706 mmHg 99%
    03:00 +4°C° 0.1 mm 1 mps 706 mmHg 99%
    04:00 +4°C° 0.2 mm 1 mps 706 mmHg 99%
    05:00 +4°C° 0.2 mm 2 mps 706 mmHg 99%
    06:00 +4°C° 0.2 mm 2 mps 706 mmHg 99%
    07:00 +5°C° 0.2 mm 2 mps 706 mmHg 99%
    08:00 +5°C° 0.2 mm 2 mps 706 mmHg 98%
    09:00 +5°C° 0.2 mm 3 mps 706 mmHg 98%
    10:00 +5°C° 0.5 mm 3 mps 706 mmHg 98%
    11:00 +5°C° 0.5 mm 3 mps 705 mmHg 98%
    12:00 +5°C° 0.5 mm 3 mps 705 mmHg 99%
    13:00 +5°C° 0.2 mm 3 mps 705 mmHg 97%
    14:00 +5°C° 0.2 mm 3 mps 705 mmHg 96%
    15:00 +5°C° 0.2 mm 4 mps 705 mmHg 94%
    16:00 +5°C° 0.1 mm 3 mps 705 mmHg 93%
    17:00 +5°C° 0.1 mm 3 mps 706 mmHg 92%
    18:00 +5°C° 0.1 mm 3 mps 706 mmHg 92%
    19:00 +4°C° 0.1 mm 3 mps 706 mmHg 93%
    20:00 +5°C° 0.1 mm 2 mps 707 mmHg 95%
    21:00 +4°C° 0.1 mm 2 mps 707 mmHg 97%
    22:00 +3°C° 0.1 mm 3 mps 707 mmHg 97%
    23:00 +3°C° 0.1 mm 3 mps 707 mmHg 97%

    28 April, Sunday

    Time Temperature Precipitation Wind Pressure Humidity
    00:00 +2°C° 0.1 mm 3 mps 707 mmHg 97%
    01:00 +2°C° 0 mm 2 mps 707 mmHg 98%
    02:00 +2°C° 0 mm 2 mps 707 mmHg 98%
    03:00 +2°C° 0 mm 1 mps 706 mmHg 99%
    04:00 +2°C° 0 mm 1 mps 706 mmHg 98%
    05:00 +2°C° 0 mm 1 mps 706 mmHg 98%
    06:00 +3°C° 0 mm 1 mps 707 mmHg 97%
    07:00 +4°C° 0 mm 1 mps 707 mmHg 95%
    08:00 +3°C° 0 mm 2 mps 707 mmHg 92%
    09:00 +4°C° 0 mm 2 mps 707 mmHg 90%
    10:00 +5°C° 0 mm 2 mps 706 mmHg 86%
    11:00 +6°C° 0 mm 2 mps 706 mmHg 82%
    12:00 +7°C° 0 mm 2 mps 706 mmHg 78%
    13:00 +8°C° 0.1 mm 2 mps 706 mmHg 75%
    14:00 +8°C° 0.1 mm 2 mps 705 mmHg 73%
    15:00 +9°C° 0.1 mm 2 mps 705 mmHg 70%
    16:00 +9°C° 0.1 mm 2 mps 705 mmHg 74%
    17:00 +8°C° 0.1 mm 2 mps 705 mmHg 77%
    18:00 +9°C° 0.1 mm 1 mps 705 mmHg 81%
    19:00 +7°C° 0 mm 1 mps 705 mmHg 86%
    20:00 +5°C° 0 mm 1 mps 705 mmHg 92%
    21:00 +4°C° 0 mm 1 mps 705 mmHg 98%
    22:00 +3°C° 0 mm 1 mps 704 mmHg 98%
    23:00 +3°C° 0 mm 1 mps 704 mmHg 98%

    29 April, Monday

    Time Temperature Precipitation Wind Pressure Humidity
    00:00 +3°C° 0 mm 1 mps 704 mmHg 98%
    01:00 +3°C° 0 mm 1 mps 704 mmHg 98%
    02:00 +3°C° 0 mm 1 mps 703 mmHg 98%
    03:00 +2°C° 0 mm 1 mps 703 mmHg 98%
    04:00 +3°C° 0 mm 1 mps 703 mmHg 96%
    05:00 +4°C° 0 mm 1 mps 703 mmHg 93%
    06:00 +4°C° 0 mm 1 mps 703 mmHg 91%
    07:00 +7°C° 0 mm 1 mps 703 mmHg 79%
    08:00 +10°C° 0 mm 1 mps 704 mmHg 67%
    09:00 +12°C° 0 mm 1 mps 704 mmHg 54%
    10:00 +14°C° 0 mm 1 mps 704 mmHg 50%
    11:00 +15°C° 0 mm 2 mps 703 mmHg 45%
    12:00 +16°C° 0 mm 2 mps 703 mmHg 40%
    13:00 +16°C° 0 mm 2 mps 703 mmHg 40%
    14:00 +16°C° 0 mm 2 mps 702 mmHg 40%
    15:00 +17°C° 0 mm 2 mps 702 mmHg 40%
    16:00 +15°C° 0 mm 2 mps 702 mmHg 49%
    17:00 +14°C° 0 mm 2 mps 702 mmHg 57%
    18:00 +12°C° 0 mm 2 mps 701 mmHg 65%
    19:00 +9°C° 0 mm 2 mps 701 mmHg 71%
    20:00 +7°C° 0 mm 2 mps 701 mmHg 77%
    21:00 +5°C° 0 mm 2 mps 701 mmHg 83%
    22:00 +5°C° 0 mm 2 mps 701 mmHg 85%
    23:00 +5°C° 0 mm 2 mps 701 mmHg 88%

    30 April, Tuesday

    Time Temperature Precipitation Wind Pressure Humidity
    00:00 +4°C° 0 mm 2 mps 701 mmHg 90%
    01:00 +4°C° 0 mm 2 mps 700 mmHg 91%
    02:00 +4°C° 0 mm 2 mps 700 mmHg 93%
    03:00 +4°C° 0 mm 2 mps 700 mmHg 95%
    04:00 +5°C° 0 mm 2 mps 700 mmHg 91%
    05:00 +6°C° 0 mm 1 mps 700 mmHg 88%
    06:00 +7°C° 0 mm 1 mps 700 mmHg 85%
    07:00 +9°C° 0 mm 2 mps 700 mmHg 74%
    08:00 +13°C° 0 mm 2 mps 700 mmHg 63%
    09:00 +16°C° 0 mm 2 mps 700 mmHg 52%
    10:00 +17°C° 0 mm 2 mps 700 mmHg 49%
    11:00 +20°C° 0 mm 1 mps 700 mmHg 45%
    12:00 +21°C° 0 mm 1 mps 700 mmHg 41%
    13:00 +21°C° 0 mm 1 mps 699 mmHg 43%
    14:00 +21°C° 0 mm 1 mps 699 mmHg 45%
    15:00 +21°C° 0 mm 1 mps 699 mmHg 47%
    16:00 +19°C° 0 mm 1 mps 698 mmHg 55%
    17:00 +18°C° 0 mm 1 mps 698 mmHg 64%
    18:00 +15°C° 0 mm 1 mps 698 mmHg 73%
    19:00 +13°C° 0 mm 1 mps 698 mmHg 78%
    20:00 +11°C° 0 mm 1 mps 698 mmHg 83%
    21:00 +9°C° 0 mm 1 mps 698 mmHg 88%
    22:00 +9°C° 0 mm 1 mps 698 mmHg 89%
    23:00 +8°C° 0 mm 1 mps 698 mmHg 90%
    Show more